最新 今天 统计 地图 地球 设置 关于
...

今天收到的 9A3XK 192 APRS数据包 下载轨迹 aprs.fi hamclub hellocq 本站 本站轨迹

时间msgraw packet
2023-02-07 07:20:389A3XK>APMI06,TCPIP*,qAC,IW0RED-IT:T#236,075,033,001,03600,081,00000000
2023-02-07 07:15:389A3XK>APMI06,TCPIP*,qAC,IW0RED-IT:T#235,064,032,001,03600,081,00000000
2023-02-07 07:15:309A3XK>APMI06,WIDE1-1,qAR,9A6ICN::9A3XK :BITS.11111111,DJAKOVO 5' Stats.
2023-02-07 07:15:309A3XK>APMI06,WIDE1-1,qAR,9A6ICN::9A3XK :EQNS.0,1,0,0,10,0,0,1,0,0,0.001,0,0,1,0
2023-02-07 07:15:299A3XK>APMI06,WIDE1-1,qAR,9A6ICN::9A3XK :UNIT.Pkt,Pkt,Pkt,Pcnt,Pcnt,On,On,On,On,Hi,Hi,Hi,Hi
2023-02-07 07:15:299A3XK>APMI06,WIDE1-1,qAR,9A6ICN::9A3XK :PARM.Rx10m,Rx1h,Dg10m,DgR,Eff,O1,O2,O3,O4,I1,I2,I3,I4
2023-02-07 07:15:039A3XK>BEACON,TCPIP*,qAC,IW0RED-IT:Power 9W Gain 3dB Height 240m Ant omni
2023-02-07 07:14:489A3XK>APMI06,TCPIP*,qAC,IW0RED-IT:>http://crlnet.it - WX3IN1 Plus 2.0 - v1.13 - 14.8C - 12.1V
2023-02-07 07:14:43!4522.10N/01814.60EIiGate&W2 DJAKOVO CRLNet.108 http://elco.hr9A3XK>APMI06,TCPIP*,qAC,IW0RED-IT:!4522.10N/01814.60EIiGate&W2 DJAKOVO CRLNet.108 http://elco.hr
2023-02-07 07:12:389A3XK>APMI06,WIDE1-1,qAR,9A6ICN:T#234,047,030,000,03600,081,00000000
2023-02-07 07:10:389A3XK>APMI06,TCPIP*,qAC,IW0RED-IT:T#233,040,028,000,03600,081,00000000
2023-02-07 07:05:389A3XK>APMI06,TCPIP*,qAC,IW0RED-IT:T#232,039,027,000,03600,081,00000000
2023-02-07 07:02:44!4522.10N/01814.60EIiGate&W2 DJAKOVO CRLNet.108 http://elco.hr9A3XK>APMI06,WIDE2-2,qAR,9A6ICN:!4522.10N/01814.60EIiGate&W2 DJAKOVO CRLNet.108 http://elco.hr
2023-02-07 07:00:389A3XK>APMI06,TCPIP*,qAC,IW0RED-IT:T#231,045,027,001,03601,081,00000000
2023-02-07 06:55:389A3XK>APMI06,TCPIP*,qAC,IW0RED-IT:T#230,062,028,001,03601,081,00000000
2023-02-07 06:50:389A3XK>APMI06,TCPIP*,qAC,IW0RED-IT:T#229,056,026,001,03601,081,00000000
2023-02-07 06:45:389A3XK>APMI06,TCPIP*,qAC,IW0RED-IT:T#228,058,025,001,03601,081,00000000
2023-02-07 06:45:039A3XK>BEACON,TCPIP*,qAC,IW0RED-IT:Power 9W Gain 3dB Height 240m Ant omni
2023-02-07 06:44:489A3XK>APMI06,TCPIP*,qAC,IW0RED-IT:>http://crlnet.it - WX3IN1 Plus 2.0 - v1.13 - 14.6C - 12.1V
2023-02-07 06:44:43!4522.10N/01814.60EIiGate&W2 DJAKOVO CRLNet.108 http://elco.hr9A3XK>APMI06,TCPIP*,qAC,IW0RED-IT:!4522.10N/01814.60EIiGate&W2 DJAKOVO CRLNet.108 http://elco.hr
2023-02-07 06:43:389A3XK>APMI06,WIDE1-1,qAR,9A6ICN:T#227,056,024,000,03601,081,00000000
2023-02-07 06:41:44!4522.10N/01814.60EIiGate&W2 DJAKOVO CRLNet.108 http://elco.hr9A3XK>APMI06,WIDE2-2,qAR,9A6ICN:!4522.10N/01814.60EIiGate&W2 DJAKOVO CRLNet.108 http://elco.hr
2023-02-07 06:40:389A3XK>APMI06,TCPIP*,qAC,IW0RED-IT:T#226,046,023,001,03601,081,00000000
2023-02-07 06:35:389A3XK>APMI06,TCPIP*,qAC,IW0RED-IT:T#225,040,023,001,03602,081,00000000
2023-02-07 06:35:049A3XK>BEACON,WIDE1-1,qAR,9A6ICN:Power 9W Gain 3dB Height 240m Ant omni
2023-02-07 06:34:549A3XK>BEACON,WIDE1-1,qAR,9A6ICN:CRLNet.108 - SysOp 9a3XK & 9a7kxp-Internet via DJWIRELES http://djw.hr/
2023-02-07 06:30:389A3XK>APMI06,TCPIP*,qAC,IW0RED-IT:T#224,034,024,001,03602,081,00000000
2023-02-07 06:25:389A3XK>APMI06,TCPIP*,qAC,IW0RED-IT:T#223,031,025,001,03602,081,00000000
2023-02-07 06:20:44!4522.10N/01814.60EIiGate&W2 DJAKOVO CRLNet.108 http://elco.hr9A3XK>APMI06,WIDE2-2,qAR,9A6ICN:!4522.10N/01814.60EIiGate&W2 DJAKOVO CRLNet.108 http://elco.hr
2023-02-07 06:20:389A3XK>APMI06,TCPIP*,qAC,IW0RED-IT:T#222,026,026,001,03602,081,00000000
2023-02-07 06:15:389A3XK>APMI06,TCPIP*,qAC,IW0RED-IT:T#221,023,027,001,03602,081,00000000
2023-02-07 06:15:039A3XK>BEACON,TCPIP*,qAC,IW0RED-IT:Power 9W Gain 3dB Height 240m Ant omni
2023-02-07 06:14:489A3XK>APMI06,TCPIP*,qAC,IW0RED-IT:>http://crlnet.it - WX3IN1 Plus 2.0 - v1.13 - 14.6C - 12.1V
2023-02-07 06:14:43!4522.10N/01814.60EIiGate&W2 DJAKOVO CRLNet.108 http://elco.hr9A3XK>APMI06,TCPIP*,qAC,IW0RED-IT:!4522.10N/01814.60EIiGate&W2 DJAKOVO CRLNet.108 http://elco.hr
2023-02-07 06:14:389A3XK>APMI06,WIDE1-1,qAR,9A6ICN:T#220,018,027,001,03602,081,00000000
2023-02-07 06:10:389A3XK>APMI06,TCPIP*,qAC,IW0RED-IT:T#219,035,029,001,03602,081,00000000
2023-02-07 06:05:389A3XK>APMI06,TCPIP*,qAC,IW0RED-IT:T#218,047,032,001,03602,081,00000000
2023-02-07 06:00:389A3XK>APMI06,TCPIP*,qAC,IW0RED-IT:T#217,035,034,001,03602,081,00000000
2023-02-07 05:59:44!4522.10N/01814.60EIiGate&W2 DJAKOVO CRLNet.108 http://elco.hr9A3XK>APMI06,WIDE2-2,qAR,9A6ICN:!4522.10N/01814.60EIiGate&W2 DJAKOVO CRLNet.108 http://elco.hr
2023-02-07 05:55:389A3XK>APMI06,TCPIP*,qAC,IW0RED-IT:T#216,029,034,001,03602,081,00000000
2023-02-07 05:50:389A3XK>APMI06,TCPIP*,qAC,IW0RED-IT:T#215,034,037,001,03602,081,00000000
2023-02-07 05:45:409A3XK>APMI06,TCPIP*,qAC,IW0RED-IT:T#214,042,038,001,03602,081,00000000
2023-02-07 05:45:399A3XK>APMI06,WIDE1-1,qAR,9A6ICN:T#213,042,038,001,03602,081,00000000
2023-02-07 05:45:039A3XK>BEACON,TCPIP*,qAC,IW0RED-IT:Power 9W Gain 3dB Height 240m Ant omni
2023-02-07 05:44:549A3XK>BEACON,WIDE1-1,qAR,9A6ICN:CRLNet.108 - SysOp 9a3XK & 9a7kxp-Internet via DJWIRELES http://djw.hr/
2023-02-07 05:44:489A3XK>APMI06,TCPIP*,qAC,IW0RED-IT:>http://crlnet.it - WX3IN1 Plus 2.0 - v1.13 - 14.2C - 12.1V
2023-02-07 05:44:43!4522.10N/01814.60EIiGate&W2 DJAKOVO CRLNet.108 http://elco.hr9A3XK>APMI06,TCPIP*,qAC,IW0RED-IT:!4522.10N/01814.60EIiGate&W2 DJAKOVO CRLNet.108 http://elco.hr
2023-02-07 05:40:389A3XK>APMI06,TCPIP*,qAC,IW0RED-IT:T#212,053,039,000,03602,081,00000000
2023-02-07 05:38:44!4522.10N/01814.60EIiGate&W2 DJAKOVO CRLNet.108 http://elco.hr9A3XK>APMI06,WIDE2-2,qAR,9A6ICN:!4522.10N/01814.60EIiGate&W2 DJAKOVO CRLNet.108 http://elco.hr
2023-02-07 05:35:389A3XK>APMI06,TCPIP*,qAC,IW0RED-IT:T#211,056,040,000,03602,081,00000000
2023-02-07 05:30:389A3XK>APMI06,TCPIP*,qAC,IW0RED-IT:T#210,053,041,001,03603,081,00000000
2023-02-07 05:25:389A3XK>APMI06,TCPIP*,qAC,IW0RED-IT:T#209,047,040,001,03603,081,00000000
2023-02-07 05:20:389A3XK>APMI06,TCPIP*,qAC,IW0RED-IT:T#208,053,039,001,03603,081,00000000
2023-02-07 05:17:44!4522.10N/01814.60EIiGate&W2 DJAKOVO CRLNet.108 http://elco.hr9A3XK>APMI06,WIDE2-2,qAR,9A6ICN:!4522.10N/01814.60EIiGate&W2 DJAKOVO CRLNet.108 http://elco.hr
2023-02-07 05:16:389A3XK>APMI06,WIDE1-1,qAR,9A6ICN:T#207,069,040,003,03603,081,00000000
2023-02-07 05:15:389A3XK>APMI06,TCPIP*,qAC,IW0RED-IT:T#206,072,040,005,03603,081,00000000
2023-02-07 05:15:039A3XK>BEACON,TCPIP*,qAC,IW0RED-IT:Power 9W Gain 3dB Height 240m Ant omni
2023-02-07 05:14:489A3XK>APMI06,TCPIP*,qAC,IW0RED-IT:>http://crlnet.it - WX3IN1 Plus 2.0 - v1.13 - 14.3C - 12.1V
2023-02-07 05:14:43!4522.10N/01814.60EIiGate&W2 DJAKOVO CRLNet.108 http://elco.hr9A3XK>APMI06,TCPIP*,qAC,IW0RED-IT:!4522.10N/01814.60EIiGate&W2 DJAKOVO CRLNet.108 http://elco.hr
2023-02-07 05:10:389A3XK>APMI06,TCPIP*,qAC,IW0RED-IT:T#205,077,039,011,03604,081,00000000
2023-02-07 05:05:389A3XK>APMI06,TCPIP*,qAC,IW0RED-IT:T#204,057,036,008,03603,081,00000000
2023-02-07 05:00:389A3XK>APMI06,TCPIP*,qAC,IW0RED-IT:T#203,068,036,004,03601,081,00000000
2023-02-07 04:56:44!4522.10N/01814.60EIiGate&W2 DJAKOVO CRLNet.108 http://elco.hr9A3XK>APMI06,WIDE2-2,qAR,9A6ICN:!4522.10N/01814.60EIiGate&W2 DJAKOVO CRLNet.108 http://elco.hr
2023-02-07 04:55:389A3XK>APMI06,TCPIP*,qAC,IW0RED-IT:T#202,060,033,001,03601,081,00000000
2023-02-07 04:55:049A3XK>BEACON,WIDE1-1,qAR,9A6ICN:Power 9W Gain 3dB Height 240m Ant omni
2023-02-07 04:54:589A3XK>BEACON,E79VTR-11,WIDE1*,qAR,9A6ICN:CRLNet.108 - SysOp 9a3XK & 9a7kxp-Internet via DJWIRELES http://djw.hr/
2023-02-07 04:50:389A3XK>APMI06,TCPIP*,qAC,IW0RED-IT:T#201,061,034,000,03601,081,00000000
2023-02-07 04:47:399A3XK>APMI06,WIDE1-1,qAR,9A6ICN:T#200,058,035,000,03601,081,00000000
2023-02-07 04:45:389A3XK>APMI06,TCPIP*,qAC,IW0RED-IT:T#199,057,034,000,03601,081,00000000
2023-02-07 04:45:039A3XK>BEACON,TCPIP*,qAC,IW0RED-IT:Power 9W Gain 3dB Height 240m Ant omni
2023-02-07 04:44:489A3XK>APMI06,TCPIP*,qAC,IW0RED-IT:>http://crlnet.it - WX3IN1 Plus 2.0 - v1.13 - 14.5C - 12.1V
2023-02-07 04:44:43!4522.10N/01814.60EIiGate&W2 DJAKOVO CRLNet.108 http://elco.hr9A3XK>APMI06,TCPIP*,qAC,IW0RED-IT:!4522.10N/01814.60EIiGate&W2 DJAKOVO CRLNet.108 http://elco.hr
2023-02-07 04:40:389A3XK>APMI06,TCPIP*,qAC,IW0RED-IT:T#198,065,034,001,03601,081,00000000
2023-02-07 04:35:44!4522.10N/01814.60EIiGate&W2 DJAKOVO CRLNet.108 http://elco.hr9A3XK>APMI06,WIDE2-2,qAR,9A6ICN:!4522.10N/01814.60EIiGate&W2 DJAKOVO CRLNet.108 http://elco.hr
2023-02-07 04:35:389A3XK>APMI06,TCPIP*,qAC,IW0RED-IT:T#197,051,033,001,03602,081,00000000
2023-02-07 04:30:389A3XK>APMI06,TCPIP*,qAC,IW0RED-IT:T#196,036,032,001,03602,081,00000000
2023-02-07 04:25:389A3XK>APMI06,TCPIP*,qAC,IW0RED-IT:T#195,042,033,001,03602,081,00000000
2023-02-07 04:20:389A3XK>APMI06,TCPIP*,qAC,IW0RED-IT:T#194,058,034,001,03602,081,00000000
2023-02-07 04:18:399A3XK>APMI06,WIDE1-1,qAR,9A6ICN:T#193,063,035,001,03602,081,00000000
2023-02-07 04:15:389A3XK>APMI06,TCPIP*,qAC,IW0RED-IT:T#192,050,036,001,03602,081,00000000
2023-02-07 04:15:039A3XK>BEACON,TCPIP*,qAC,IW0RED-IT:Power 9W Gain 3dB Height 240m Ant omni
2023-02-07 04:14:489A3XK>APMI06,TCPIP*,qAC,IW0RED-IT:>http://crlnet.it - WX3IN1 Plus 2.0 - v1.13 - 13.4C - 12.1V
2023-02-07 04:14:43!4522.10N/01814.60EIiGate&W2 DJAKOVO CRLNet.108 http://elco.hr9A3XK>APMI06,TCPIP*,qAC,IW0RED-IT:!4522.10N/01814.60EIiGate&W2 DJAKOVO CRLNet.108 http://elco.hr
2023-02-07 04:10:389A3XK>APMI06,TCPIP*,qAC,IW0RED-IT:T#191,036,036,001,03603,081,00000000
2023-02-07 04:05:389A3XK>APMI06,TCPIP*,qAC,IW0RED-IT:T#190,029,036,001,03603,081,00000000
2023-02-07 04:05:049A3XK>BEACON,WIDE1-1,qAR,9A6ICN:Power 9W Gain 3dB Height 240m Ant omni
2023-02-07 04:04:549A3XK>BEACON,WIDE1-1,qAR,9A6ICN:CRLNet.108 - SysOp 9a3XK & 9a7kxp-Internet via DJWIRELES http://djw.hr/
2023-02-07 04:00:389A3XK>APMI06,TCPIP*,qAC,IW0RED-IT:T#189,056,037,000,03603,081,00000000
2023-02-07 03:55:389A3XK>APMI06,TCPIP*,qAC,IW0RED-IT:T#188,074,037,000,03603,081,00000000
2023-02-07 03:53:44!4522.10N/01814.60EIiGate&W2 DJAKOVO CRLNet.108 http://elco.hr9A3XK>APMI06,WIDE2-2,qAR,9A6ICN:!4522.10N/01814.60EIiGate&W2 DJAKOVO CRLNet.108 http://elco.hr
2023-02-07 03:50:389A3XK>APMI06,TCPIP*,qAC,IW0RED-IT:T#187,059,036,001,03603,081,00000000
2023-02-07 03:49:399A3XK>APMI06,WIDE1-1,qAR,9A6ICN:T#186,062,036,001,03603,081,00000000
2023-02-07 03:45:389A3XK>APMI06,TCPIP*,qAC,IW0RED-IT:T#185,048,035,001,03604,081,00000000
2023-02-07 03:45:039A3XK>BEACON,TCPIP*,qAC,IW0RED-IT:Power 9W Gain 3dB Height 240m Ant omni
2023-02-07 03:44:489A3XK>APMI06,TCPIP*,qAC,IW0RED-IT:>http://crlnet.it - WX3IN1 Plus 2.0 - v1.13 - 13.8C - 12.1V
2023-02-07 03:44:43!4522.10N/01814.60EIiGate&W2 DJAKOVO CRLNet.108 http://elco.hr9A3XK>APMI06,TCPIP*,qAC,IW0RED-IT:!4522.10N/01814.60EIiGate&W2 DJAKOVO CRLNet.108 http://elco.hr
2023-02-07 03:40:389A3XK>APMI06,TCPIP*,qAC,IW0RED-IT:T#184,042,034,001,03604,081,00000000
2023-02-07 03:35:389A3XK>APMI06,TCPIP*,qAC,IW0RED-IT:T#183,051,034,001,03604,081,00000000
2023-02-07 03:32:44!4522.10N/01814.60EIiGate&W2 DJAKOVO CRLNet.108 http://elco.hr9A3XK>APMI06,WIDE2-2,qAR,9A6ICN:!4522.10N/01814.60EIiGate&W2 DJAKOVO CRLNet.108 http://elco.hr
2023-02-07 03:30:389A3XK>APMI06,TCPIP*,qAC,IW0RED-IT:T#182,056,033,004,03604,081,00000000
2023-02-07 03:25:389A3XK>APMI06,TCPIP*,qAC,IW0RED-IT:T#181,074,031,012,03604,081,00000000
2023-02-07 03:20:399A3XK>APMI06,WIDE1-1,qAR,9A6ICN:T#179,075,029,009,03603,081,00000000
2023-02-07 03:20:389A3XK>APMI06,TCPIP*,qAC,IW0RED-IT:T#180,075,029,009,03603,081,00000000
2023-02-07 03:15:389A3XK>APMI06,TCPIP*,qAC,IW0RED-IT:T#178,056,026,004,03602,081,00000000
2023-02-07 03:15:039A3XK>BEACON,TCPIP*,qAC,IW0RED-IT:Power 9W Gain 3dB Height 240m Ant omni
2023-02-07 03:14:549A3XK>BEACON,WIDE1-1,qAR,9A6ICN:CRLNet.108 - SysOp 9a3XK & 9a7kxp-Internet via DJWIRELES http://djw.hr/
2023-02-07 03:14:489A3XK>APMI06,TCPIP*,qAC,IW0RED-IT:>http://crlnet.it - WX3IN1 Plus 2.0 - v1.13 - 13.9C - 12.1V
2023-02-07 03:14:43!4522.10N/01814.60EIiGate&W2 DJAKOVO CRLNet.108 http://elco.hr9A3XK>APMI06,TCPIP*,qAC,IW0RED-IT:!4522.10N/01814.60EIiGate&W2 DJAKOVO CRLNet.108 http://elco.hr
2023-02-07 03:11:44!4522.10N/01814.60EIiGate&W2 DJAKOVO CRLNet.108 http://elco.hr9A3XK>APMI06,WIDE2-2,qAR,9A6ICN:!4522.10N/01814.60EIiGate&W2 DJAKOVO CRLNet.108 http://elco.hr
2023-02-07 03:10:389A3XK>APMI06,TCPIP*,qAC,IW0RED-IT:T#177,041,026,001,03601,081,00000000
2023-02-07 03:05:389A3XK>APMI06,TCPIP*,qAC,IW0RED-IT:T#176,039,026,001,03601,081,00000000
2023-02-07 03:00:389A3XK>APMI06,TCPIP*,qAC,IW0RED-IT:T#175,051,026,001,03601,081,00000000
2023-02-07 02:55:389A3XK>APMI06,TCPIP*,qAC,IW0RED-IT:T#174,054,026,001,03601,081,00000000
2023-02-07 02:51:399A3XK>APMI06,WIDE1-1,qAR,9A6ICN:T#173,044,026,001,03601,081,00000000
2023-02-07 02:50:389A3XK>APMI06,TCPIP*,qAC,IW0RED-IT:T#172,040,027,001,03601,081,00000000
2023-02-07 02:45:389A3XK>APMI06,TCPIP*,qAC,IW0RED-IT:T#171,036,029,001,03602,081,00000000
2023-02-07 02:45:039A3XK>BEACON,TCPIP*,qAC,IW0RED-IT:Power 9W Gain 3dB Height 240m Ant omni
2023-02-07 02:44:489A3XK>APMI06,TCPIP*,qAC,IW0RED-IT:>http://crlnet.it - WX3IN1 Plus 2.0 - v1.13 - 14.1C - 12.1V
2023-02-07 02:44:43!4522.10N/01814.60EIiGate&W2 DJAKOVO CRLNet.108 http://elco.hr9A3XK>APMI06,TCPIP*,qAC,IW0RED-IT:!4522.10N/01814.60EIiGate&W2 DJAKOVO CRLNet.108 http://elco.hr
2023-02-07 02:40:389A3XK>APMI06,TCPIP*,qAC,IW0RED-IT:T#170,030,030,001,03602,081,00000000
2023-02-07 02:36:299A3XK>APMI06,TCPIP*,qAC,IW0RED-IT::9A3XK :BITS.11111111,DJAKOVO 5' Stats.
2023-02-07 02:36:289A3XK>APMI06,TCPIP*,qAC,IW0RED-IT::9A3XK :EQNS.0,1,0,0,10,0,0,1,0,0,0.001,0,0,1,0
2023-02-07 02:36:289A3XK>APMI06,TCPIP*,qAC,IW0RED-IT::9A3XK :UNIT.Pkt,Pkt,Pkt,Pcnt,Pcnt,On,On,On,On,Hi,Hi,Hi,Hi
2023-02-07 02:36:289A3XK>APMI06,TCPIP*,qAC,IW0RED-IT::9A3XK :PARM.Rx10m,Rx1h,Dg10m,DgR,Eff,O1,O2,O3,O4,I1,I2,I3,I4
2023-02-07 02:35:539A3XK>BEACON,TCPIP*,qAC,IW0RED-IT:CRLNet.108 - SysOp 9a3XK & 9a7kxp-Internet via DJWIRELES http://djw.hr/
2023-02-07 02:35:389A3XK>APMI06,TCPIP*,qAC,IW0RED-IT:T#169,028,030,001,03602,081,00000000
2023-02-07 02:30:389A3XK>APMI06,TCPIP*,qAC,IW0RED-IT:T#168,025,031,001,03602,081,00000000
2023-02-07 02:29:44!4522.10N/01814.60EIiGate&W2 DJAKOVO CRLNet.108 http://elco.hr9A3XK>APMI06,WIDE2-2,qAR,9A6ICN:!4522.10N/01814.60EIiGate&W2 DJAKOVO CRLNet.108 http://elco.hr
2023-02-07 02:25:389A3XK>APMI06,TCPIP*,qAC,IW0RED-IT:T#167,023,032,001,03602,081,00000000
2023-02-07 02:24:549A3XK>BEACON,WIDE1-1,qAR,9A6ICN:CRLNet.108 - SysOp 9a3XK & 9a7kxp-Internet via DJWIRELES http://djw.hr/
2023-02-07 02:22:399A3XK>APMI06,WIDE1-1,qAR,9A6ICN:T#166,042,034,001,03602,081,00000000
2023-02-07 02:20:389A3XK>APMI06,TCPIP*,qAC,IW0RED-IT:T#165,051,035,001,03602,081,00000000
2023-02-07 02:15:389A3XK>APMI06,TCPIP*,qAC,IW0RED-IT:T#164,058,036,001,03602,081,00000000
2023-02-07 02:15:049A3XK>BEACON,TCPIP*,qAC,IW0RED-IT:Power 9W Gain 3dB Height 240m Ant omni
2023-02-07 02:14:489A3XK>APMI06,TCPIP*,qAC,IW0RED-IT:>http://crlnet.it - WX3IN1 Plus 2.0 - v1.13 - 14.6C - 12.1V
2023-02-07 02:14:43!4522.10N/01814.60EIiGate&W2 DJAKOVO CRLNet.108 http://elco.hr9A3XK>APMI06,TCPIP*,qAC,IW0RED-IT:!4522.10N/01814.60EIiGate&W2 DJAKOVO CRLNet.108 http://elco.hr
2023-02-07 02:10:389A3XK>APMI06,TCPIP*,qAC,IW0RED-IT:T#163,046,036,001,03602,081,00000000
2023-02-07 02:08:44!4522.10N/01814.60EIiGate&W2 DJAKOVO CRLNet.108 http://elco.hr9A3XK>APMI06,WIDE2-2,qAR,9A6ICN:!4522.10N/01814.60EIiGate&W2 DJAKOVO CRLNet.108 http://elco.hr
2023-02-07 02:05:399A3XK>APMI06,TCPIP*,qAC,IW0RED-IT:T#162,036,035,001,03602,081,00000000
2023-02-07 02:00:389A3XK>APMI06,TCPIP*,qAC,IW0RED-IT:T#161,059,036,001,03602,081,00000000
2023-02-07 01:55:389A3XK>APMI06,TCPIP*,qAC,IW0RED-IT:T#160,087,038,001,03602,081,00000000
2023-02-07 01:53:399A3XK>APMI06,WIDE1-1,qAR,9A6ICN:T#159,081,037,000,03603,081,00000000
2023-02-07 01:50:389A3XK>APMI06,TCPIP*,qAC,IW0RED-IT:T#158,064,036,001,03603,081,00000000
2023-02-07 01:47:46!4522.10N/01814.60EIiGate&W2 DJAKOVO CRLNet.108 http://elco.hr9A3XK>APMI06,E79VTR-11,WIDE2*,qAR,9A6ICN:!4522.10N/01814.60EIiGate&W2 DJAKOVO CRLNet.108 http://elco.hr
2023-02-07 01:45:389A3XK>APMI06,TCPIP*,qAC,IW0RED-IT:T#157,044,036,001,03603,081,00000000
2023-02-07 01:45:039A3XK>BEACON,TCPIP*,qAC,IW0RED-IT:Power 9W Gain 3dB Height 240m Ant omni
2023-02-07 01:44:489A3XK>APMI06,TCPIP*,qAC,IW0RED-IT:>http://crlnet.it - WX3IN1 Plus 2.0 - v1.13 - 15.1C - 12.1V
2023-02-07 01:44:43!4522.10N/01814.60EIiGate&W2 DJAKOVO CRLNet.108 http://elco.hr9A3XK>APMI06,TCPIP*,qAC,IW0RED-IT:!4522.10N/01814.60EIiGate&W2 DJAKOVO CRLNet.108 http://elco.hr
2023-02-07 01:40:389A3XK>APMI06,TCPIP*,qAC,IW0RED-IT:T#156,038,036,001,03603,081,00000000
2023-02-07 01:35:399A3XK>APMI06,TCPIP*,qAC,IW0RED-IT:T#155,040,037,001,03603,081,00000000
2023-02-07 01:35:049A3XK>BEACON,WIDE1-1,qAR,9A6ICN:Power 9W Gain 3dB Height 240m Ant omni
2023-02-07 01:34:549A3XK>BEACON,WIDE1-1,qAR,9A6ICN:CRLNet.108 - SysOp 9a3XK & 9a7kxp-Internet via DJWIRELES http://djw.hr/
2023-02-07 01:30:399A3XK>APMI06,TCPIP*,qAC,IW0RED-IT:T#154,062,038,001,03603,081,00000000
2023-02-07 01:26:45!4522.10N/01814.60EIiGate&W2 DJAKOVO CRLNet.108 http://elco.hr9A3XK>APMI06,9A0XNG-1*,WIDE2-1,qAR,9A7KXP-4:!4522.10N/01814.60EIiGate&W2 DJAKOVO CRLNet.108 http://elco.hr
2023-02-07 01:25:399A3XK>APMI06,TCPIP*,qAC,IW0RED-IT:T#153,066,038,001,03604,081,00000000
2023-02-07 01:24:399A3XK>APMI06,WIDE1-1,qAR,9A6ICN:T#152,067,038,001,03604,081,00000000
2023-02-07 01:20:389A3XK>APMI06,TCPIP*,qAC,IW0RED-IT:T#151,053,036,001,03604,081,00000000
2023-02-07 01:15:389A3XK>APMI06,TCPIP*,qAC,IW0RED-IT:T#150,051,036,001,03604,081,00000000
2023-02-07 01:15:319A3XK>APMI06,WIDE1-1,qAR,9A6ICN::9A3XK :BITS.11111111,DJAKOVO 5' Stats.
2023-02-07 01:15:309A3XK>APMI06,WIDE1-1,qAR,9A6ICN::9A3XK :UNIT.Pkt,Pkt,Pkt,Pcnt,Pcnt,On,On,On,On,Hi,Hi,Hi,Hi
2023-02-07 01:15:309A3XK>APMI06,WIDE1-1,qAR,9A6ICN::9A3XK :EQNS.0,1,0,0,10,0,0,1,0,0,0.001,0,0,1,0
2023-02-07 01:15:299A3XK>APMI06,WIDE1-1,qAR,9A6ICN::9A3XK :PARM.Rx10m,Rx1h,Dg10m,DgR,Eff,O1,O2,O3,O4,I1,I2,I3,I4
2023-02-07 01:15:039A3XK>BEACON,TCPIP*,qAC,IW0RED-IT:Power 9W Gain 3dB Height 240m Ant omni
2023-02-07 01:14:499A3XK>APMI06,TCPIP*,qAC,IW0RED-IT:>http://crlnet.it - WX3IN1 Plus 2.0 - v1.13 - 16.4C - 12.1V
2023-02-07 01:14:43!4522.10N/01814.60EIiGate&W2 DJAKOVO CRLNet.108 http://elco.hr9A3XK>APMI06,TCPIP*,qAC,IW0RED-IT:!4522.10N/01814.60EIiGate&W2 DJAKOVO CRLNet.108 http://elco.hr
2023-02-07 01:10:399A3XK>APMI06,TCPIP*,qAC,IW0RED-IT:T#149,045,036,001,03604,081,00000000
2023-02-07 01:05:44!4522.10N/01814.60EIiGate&W2 DJAKOVO CRLNet.108 http://elco.hr9A3XK>APMI06,WIDE2-2,qAR,9A6ICN:!4522.10N/01814.60EIiGate&W2 DJAKOVO CRLNet.108 http://elco.hr
2023-02-07 01:05:399A3XK>APMI06,TCPIP*,qAC,IW0RED-IT:T#148,050,036,001,03604,081,00000000
2023-02-07 01:00:399A3XK>APMI06,TCPIP*,qAC,IW0RED-IT:T#147,067,037,001,03604,081,00000000
2023-02-07 00:55:399A3XK>APMI06,WIDE1-1,qAR,9A6ICN:T#145,072,035,001,03605,081,00000000
2023-02-07 00:55:399A3XK>APMI06,TCPIP*,qAC,IW0RED-IT:T#146,072,035,001,03605,081,00000000
2023-02-07 00:50:399A3XK>APMI06,TCPIP*,qAC,IW0RED-IT:T#144,067,033,001,03605,081,00000000
2023-02-07 00:45:399A3XK>APMI06,TCPIP*,qAC,IW0RED-IT:T#143,055,032,001,03605,081,00000000
2023-02-07 00:45:039A3XK>BEACON,TCPIP*,qAC,IW0RED-IT:Power 9W Gain 3dB Height 240m Ant omni
2023-02-07 00:44:549A3XK>BEACON,WIDE1-1,qAR,9A6ICN:CRLNet.108 - SysOp 9a3XK & 9a7kxp-Internet via DJWIRELES http://djw.hr/
2023-02-07 00:44:499A3XK>APMI06,TCPIP*,qAC,IW0RED-IT:>http://crlnet.it - WX3IN1 Plus 2.0 - v1.13 - 17.7C - 12.1V
2023-02-07 00:44:43!4522.10N/01814.60EIiGate&W2 DJAKOVO CRLNet.108 http://elco.hr9A3XK>APMI06,TCPIP*,qAC,IW0RED-IT:!4522.10N/01814.60EIiGate&W2 DJAKOVO CRLNet.108 http://elco.hr
2023-02-07 00:40:389A3XK>APMI06,TCPIP*,qAC,IW0RED-IT:T#142,039,030,001,03606,081,00000000
2023-02-07 00:35:399A3XK>APMI06,TCPIP*,qAC,IW0RED-IT:T#141,051,030,001,03606,081,00000000
2023-02-07 00:30:399A3XK>APMI06,TCPIP*,qAC,IW0RED-IT:T#140,055,029,001,03606,081,00000000
2023-02-07 00:26:399A3XK>APMI06,WIDE1-1,qAR,9A6ICN:T#139,050,028,001,03606,081,00000000
2023-02-07 00:25:399A3XK>APMI06,TCPIP*,qAC,IW0RED-IT:T#138,049,028,001,03606,081,00000000
2023-02-07 00:23:44!4522.10N/01814.60EIiGate&W2 DJAKOVO CRLNet.108 http://elco.hr9A3XK>APMI06,WIDE2-2,qAR,9A6ICN:!4522.10N/01814.60EIiGate&W2 DJAKOVO CRLNet.108 http://elco.hr
2023-02-07 00:20:399A3XK>APMI06,TCPIP*,qAC,IW0RED-IT:T#137,053,026,001,03606,081,00000000
2023-02-07 00:15:399A3XK>APMI06,TCPIP*,qAC,IW0RED-IT:T#136,053,027,001,03606,081,00000000
2023-02-07 00:15:049A3XK>BEACON,TCPIP*,qAC,IW0RED-IT:Power 9W Gain 3dB Height 240m Ant omni
2023-02-07 00:14:499A3XK>APMI06,TCPIP*,qAC,IW0RED-IT:>http://crlnet.it - WX3IN1 Plus 2.0 - v1.13 - 17.9C - 12.1V
2023-02-07 00:14:44!4522.10N/01814.60EIiGate&W2 DJAKOVO CRLNet.108 http://elco.hr9A3XK>APMI06,TCPIP*,qAC,IW0RED-IT:!4522.10N/01814.60EIiGate&W2 DJAKOVO CRLNet.108 http://elco.hr
2023-02-07 00:10:399A3XK>APMI06,TCPIP*,qAC,IW0RED-IT:T#135,046,028,001,03607,081,00000000
2023-02-07 00:05:419A3XK>APMI06,TCPIP*,qAC,IW0RED-IT:T#134,039,027,001,03607,081,00000000
2023-02-07 00:02:45!4522.10N/01814.60EIiGate&W2 DJAKOVO CRLNet.108 http://elco.hr9A3XK>APMI06,WIDE2-2,qAR,9A6ICN:!4522.10N/01814.60EIiGate&W2 DJAKOVO CRLNet.108 http://elco.hr
2023-02-07 00:00:399A3XK>APMI06,TCPIP*,qAC,IW0RED-IT:T#133,042,026,001,03607,081,00000000